Charlottetown, Prince Edward Island

8:25 PM ADT on September 29, 2016 (GMT -0300)
Charlottetown

Weather History for 71706 - November, 2012

Change the Weather History Date:

Wednesday, November 14, 2012

  Actual Average Record
Temperature  
Mean Temperature 40 °F -  
Max Temperature 41 °F - - ()
Min Temperature 39 °F - - ()
Degree Days  
Heating Degree Days 25    
Moisture  
Dew Point 37 °F    
Average Humidity 87    
Maximum Humidity 100    
Minimum Humidity 75    
Precipitation  
Precipitation 0.16 in - - ()
Sea Level Pressure  
Sea Level Pressure 30.45 in    
Wind  
Wind Speed 8 mph ()    
Max Wind Speed 16 mph    
Max Gust Speed 22 mph    
Visibility 12.0 miles    
Events Rain    
T = Trace of Precipitation, MM = Missing Value Source: Averaged Metar Reports

Daily Weather History Graph

Daily Weather History Graph

Search for Another Location

Airport or City:

Trip Planner

Search our weather history database for the weather conditions in past years. The results will help you decide how hot, cold, wet, or windy it might be!

Date:

Astronomy

Nov. 14, 2012 Rise Set
Actual Time 7:12 AM AST 4:40 PM AST
Civil Twilight 6:40 AM AST 5:13 PM AST
Nautical Twilight 6:03 AM AST 5:49 PM AST
Astronomical Twilight 5:28 AM AST 6:24 PM AST
Moon 8:00 AM AST (11/14) 5:21 PM AST (11/14)
Length of Visible Light 10h 32m
Length of Day
9h 27m
New Moon, 1% of the Moon is Illuminated
Nov 14
New Moon
Nov 20
First Quarter
Nov 28
Full
Dec 6
Last Quarter
Dec 13
New

Hourly Weather History & Observations

Time (AST) Temp. Windchill Dew Point Humidity Pressure Visibility Wind Dir Wind Speed Gust Speed Precip Events Conditions
12:00 AM 42.8 °F 37.5 °F 41.0 °F 93% 30.33 in 4.0 mi NW 9.2 mph - N/A Rain Light Rain Showers
12:24 AM 42.8 °F 38.6 °F 41.0 °F 93% 30.34 in 4.0 mi NW 6.9 mph - N/A Rain Light Rain
12:46 AM 42.8 °F 38.0 °F 41.0 °F 93% 30.35 in 5.0 mi NW 8.1 mph - N/A Rain Light Rain
1:00 AM 41.0 °F 34.7 °F 41.0 °F 100% 30.35 in 5.0 mi NNW 10.4 mph 17.3 mph N/A Rain Light Rain
2:00 AM 41 °F - 39 °F 92% 30.37 in 6 mi NNW 8.1 mph - - Rain Rain
2:00 AM 41.0 °F 37.1 °F 39.2 °F 93% 30.37 in 6.0 mi NNW 5.8 mph - N/A Rain Rain
3:00 AM 41.0 °F 36.4 °F 39.2 °F 93% 30.38 in 6.0 mi North 6.9 mph - N/A Rain Light Rain
4:00 AM 41.0 °F 37.1 °F 39.2 °F 93% 30.39 in 6.0 mi North 5.8 mph - N/A Rain Light Rain
5:00 AM 41.0 °F - 41.0 °F 100% 30.41 in 8.0 mi Calm Calm - N/A Rain Light Rain
6:00 AM 39.2 °F 35.0 °F 37.4 °F 93% 30.41 in 8.0 mi North 5.8 mph - N/A Rain Light Rain
7:00 AM 39.2 °F 35.9 °F 37.4 °F 93% 30.43 in 15.0 mi NNE 4.6 mph - N/A Rain Light Rain
8:00 AM 41 °F - 39 °F 89% 30.46 in 15 mi North 5.8 mph - - Rain Light Rain
8:00 AM 41.0 °F 37.1 °F 39.2 °F 93% 30.46 in 15.0 mi North 5.8 mph - N/A Rain Light Rain
9:00 AM 41.0 °F 36.4 °F 39.2 °F 93% 30.48 in 15.0 mi North 6.9 mph - N/A Rain Light Rain
10:00 AM 41.0 °F 35.2 °F 37.4 °F 87% 30.47 in 15.0 mi NNE 9.2 mph - N/A   Light Drizzle
11:00 AM 41.0 °F 34.3 °F 37.4 °F 87% 30.48 in 15.0 mi North 11.5 mph 18.4 mph N/A   Light Drizzle
12:00 PM 41.0 °F 34.7 °F 37.4 °F 87% 30.47 in 15.0 mi NNE 10.4 mph - N/A   Light Drizzle
12:42 PM 41.0 °F 33.9 °F 37.4 °F 87% 30.47 in 10.0 mi NNE 12.7 mph - N/A Rain Light Rain
1:00 PM 41.0 °F 35.2 °F 37.4 °F 87% 30.48 in 15.0 mi North 9.2 mph - N/A Rain Light Rain
2:00 PM 40 °F - 37 °F 83% 30.48 in 15 mi North 11.5 mph - - Rain Light Rain
2:00 PM 41.0 °F 34.3 °F 37.4 °F 87% 30.48 in 15.0 mi North 11.5 mph - N/A Rain Light Rain
3:00 PM 39.2 °F 32.5 °F 35.6 °F 87% 30.48 in 15.0 mi North 10.4 mph 21.9 mph N/A Rain Light Rain
4:00 PM 39.2 °F 32.0 °F 33.8 °F 81% 30.49 in 15.0 mi North 11.5 mph - N/A Rain Light Rain Showers
4:22 PM 39.2 °F 33.0 °F 33.8 °F 81% 30.49 in 15.0 mi North 9.2 mph - N/A   Overcast
5:00 PM 39.2 °F 32.5 °F 33.8 °F 81% 30.50 in 15.0 mi North 10.4 mph - N/A   Mostly Cloudy
6:00 PM 39.2 °F 32.5 °F 33.8 °F 81% 30.50 in 15.0 mi North 10.4 mph - N/A   Mostly Cloudy
7:00 PM 39.2 °F 31.6 °F 33.8 °F 81% 30.50 in 15.0 mi North 12.7 mph 19.6 mph N/A   Mostly Cloudy
8:00 PM 39 °F - 35 °F 79% 30.50 in 15 mi NNE 10.4 mph - -   Partly Cloudy
8:00 PM 39.2 °F 33.0 °F 33.8 °F 81% 30.50 in 15.0 mi NNE 9.2 mph - N/A   Mostly Cloudy
9:00 PM 41.0 °F 33.5 °F 33.8 °F 76% 30.49 in 15.0 mi North 13.8 mph - N/A   Mostly Cloudy
10:00 PM 39.2 °F 31.6 °F 33.8 °F 81% 30.49 in 15.0 mi NNE 12.7 mph 19.6 mph N/A   Mostly Cloudy
11:00 PM 39.2 °F 30.5 °F 32.0 °F 75% 30.49 in 15.0 mi NNE 16.1 mph - N/A   Mostly Cloudy